G-SAT

Last updated on Wed Apr 20 2022 00:02:04 GMT+0000 (Coordinated Universal Time)

1 45597U 98067RK 22108.51524290 .15751873 12716-4 25012-3 0 9992 2 45597 51.6147 213.8026 0006269 335.6957 24.3777 16.47945758112504

Satellite not in orbit